Dewpoint
62 50 41 39 28 27 23 23 25 23 20 20 21 21 30 29 44 41 54 56 59 62 72 76 76 76 76 76 76 75 75 75 75 75 75 75 75 75 74 74 73 71 70 67 65 65 64 62 62
61 44 35 33 28 22 18 25 23 23 23 24 24 23 24 24 30 52 53 56 58 61 71 74 76 76 76 76 75 75 75 75 75 75 75 75 74 74 73 73 72 70 68 66 66 64 63 63 62
54 46 30 30 28 21 19 24 23 24 24 24 23 21 23 44 50 53 55 59 58 63 70 73 75 76 76 76 75 75 75 75 75 75 75 75 74 74 73 73 72 69 68 66 65 64 64 64 63
46 44 36 28 23 26 24 24 23 22 22 21 21 21 25 48 52 56 57 59 58 64 69 72 75 76 76 76 75 75 75 75 75 75 75 75 74 74 73 73 72 70 68 67 65 64 65 64 64
41 38 32 31 25 27 25 24 22 22 21 22 25 21 23 44 59 58 57 58 57 64 67 71 75 75 76 76 75 75 75 74 74 75 75 75 74 74 73 73 72 70 69 67 66 66 67 67 66
39 34 29 26 17 24 25 24 25 24 25 27 26 22 25 56 58 57 58 57 57 62 66 70 74 75 75 75 75 75 75 74 74 74 74 75 75 74 73 73 72 71 70 69 68 68 68 68 68
39 33 31 28 24 26 25 30 29 27 29 32 29 23 32 44 58 57 55 56 61 63 65 69 72 74 75 75 75 75 75 74 74 74 74 74 74 74 74 73 72 71 71 70 69 69 69 69 69
44 39 36 33 28 27 31 35 34 31 34 33 30 29 31 52 56 57 59 60 61 63 66 68 70 71 72 73 75 75 75 75 74 74 74 74 74 74 74 73 72 71 71 70 70 70 70 69 69
41 40 37 34 31 32 36 36 37 37 35 37 34 34 39 58 57 58 59 62 63 64 66 68 69 70 70 70 73 74 74 75 75 75 74 73 73 73 73 73 72 71 71 70 70 71 70 70 69
33 34 36 38 36 36 36 37 36 36 34 35 36 38 37 55 57 56 55 55 61 62 66 68 68 69 69 69 70 71 72 72 73 73 73 73 72 71 71 72 72 71 71 71 71 71 71 69 68
29 32 35 35 33 34 31 29 31 31 30 33 34 34 34 39 48 56 55 55 57 59 64 67 68 68 68 67 68 70 70 69 69 69 69 70 68 69 70 69 70 69 70 68 69 70 69 68 68
18 23 18 19 18 18 20 21 19 21 25 29 25 25 36 36 39 46 53 55 57 59 62 64 67 68 67 66 67 68 68 68 68 68 67 67 65 65 66 66 66 66 67 67 66 67 68 68 67
16 19 19 19 18 16 16 16 17 17 19 23 23 24 26 32 39 48 48 50 54 58 61 63 64 65 66 65 66 66 66 66 66 67 67 66 65 64 64 65 65 65 65 65 65 65 66 67 67
21 20 18 16 15 16 15 14 16 18 22 20 23 23 24 27 38 48 51 49 47 52 60 61 63 63 63 64 64 64 65 64 65 66 66 66 64 64 63 63 63 63 64 64 64 64 65 65 66
21 14 12 12 14 14 16 15 15 19 21 22 22 22 23 26 30 37 50 53 49 51 57 63 63 62 61 62 63 64 64 63 64 64 66 65 64 64 63 62 62 62 63 64 64 64 64 64 64
16 11 4 6 14 13 16 13 17 18 18 21 20 19 20 22 24 28 37 47 50 52 58 64 65 64 62 60 61 64 64 64 62 63 64 65 65 64 63 62 61 62 62 63 63 63 63 63 63
16 12 12 13 15 14 16 13 17 19 19 19 19 21 21 21 25 28 30 32 39 44 49 58 66 65 64 63 61 62 64 65 64 64 64 64 65 64 63 62 62 62 62 62 62 62 62 61 62
14 16 15 15 16 19 19 19 20 21 20 20 20 20 22 24 24 26 28 30 35 42 48 53 64 66 65 64 63 63 65 66 66 65 64 65 65 65 64 64 63 62 62 62 62 62 63 62 62
18 18 17 18 19 22 20 21 21 24 21 19 20 21 23 25 25 29 30 31 34 43 46 47 57 63 65 64 63 64 62 63 65 64 65 66 66 66 65 64 64 63 62 62 62 62 62 62 62
19 17 18 21 23 22 22 21 22 22 22 19 19 21 21 27 24 26 26 29 31 34 40 45 48 55 63 65 64 64 63 63 63 65 66 67 67 67 65 65 64 64 63 62 63 63 62 62 62
20 19 19 22 25 25 23 21 20 19 21 21 19 20 21 21 27 26 30 32 29 30 34 42 46 49 57 64 64 63 64 64 64 64 66 67 67 68 67 66 66 64 64 62 63 63 62 62 62
21 22 24 23 21 18 23 19 19 18 19 19 17 17 18 19 35 38 38 39 39 36 32 32 43 49 51 60 63 63 62 61 61 63 64 65 67 68 68 66 66 66 65 65 63 63 63 64 62
18 24 23 22 22 24 23 20 18 18 17 19 18 16 25 37 38 38 38 38 39 41 39 36 37 48 52 56 64 63 62 61 61 62 63 64 65 66 68 67 66 66 66 66 65 64 64 64 63
25 20 18 23 21 17 18 19 16 16 16 19 19 25 36 38 38 37 37 38 38 38 41 43 41 39 51 55 61 63 62 62 60 61 61 63 65 67 68 68 67 67 67 66 66 66 65 64 64
19 17 14 10 13 13 18 18 17 20 20 24 24 34 38 38 37 36 35 35 36 37 39 42 44 43 44 54 57 64 63 63 60 61 60 63 65 66 68 68 68 67 67 67 66 66 65 64 63
19 19 17 12 15 11 15 15 16 21 23 33 39 39 38 37 35 37 39 40 40 41 42 44 45 45 42 46 54 59 63 62 60 59 60 62 64 66 68 68 68 68 67 67 67 66 66 64 64
21 17 20 17 20 18 19 20 21 21 26 36 36 36 35 36 39 39 39 41 42 43 43 45 46 46 47 42 52 56 59 61 60 60 62 63 65 66 68 68 68 68 67 67 67 66 65 65 64
23 23 20 19 12 10 16 19 19 22 21 29 33 32 34 39 40 39 38 41 43 44 45 46 46 45 46 48 47 54 58 60 59 61 63 64 66 67 67 67 67 67 67 67 67 66 64 64 63
20 22 27 23 21 16 16 15 26 25 26 29 32 34 37 39 39 40 40 46 46 46 46 46 47 47 47 50 47 54 57 59 60 61 63 65 66 67 67 67 67 67 66 66 66 65 64 62 62
23 24 24 21 20 25 23 20 25 27 29 35 35 34 38 41 42 41 44 48 46 47 46 46 49 51 48 48 48 55 59 60 61 62 64 66 66 67 67 67 67 66 66 65 65 64 63 62 62
Lifted_Index
6 8 9 8 6 5 4 4 4 5 5 5 5 4 3 2 1 1 1 1 1 -0 -4 -6 -7 -7 -6 -6 -5 -5 -4 -4 -4 -4 -4 -3 -3 -3 -3 -2 -1 -0 1 3 4 4 5 5 5
5 7 8 7 6 5 4 4 5 5 5 5 5 4 3 1 1 1 1 1 1 -0 -4 -6 -7 -7 -6 -6 -5 -5 -5 -4 -4 -4 -4 -4 -3 -3 -2 -2 -1 0 1 2 3 4 4 4 4
4 6 7 6 5 4 4 5 5 5 6 5 4 3 2 1 -0 0 1 1 1 -1 -3 -5 -7 -7 -6 -6 -5 -5 -5 -5 -4 -4 -4 -4 -3 -3 -2 -2 -1 0 1 2 3 4 4 4 4
3 5 6 5 5 5 5 6 6 6 6 5 4 3 2 1 -0 -0 0 1 1 -1 -3 -5 -6 -7 -6 -6 -6 -5 -5 -5 -5 -5 -4 -4 -4 -3 -3 -2 -1 -0 1 2 3 3 3 3 3
3 4 5 5 4 5 6 6 6 6 5 5 4 3 2 1 -0 -1 -0 1 1 -1 -2 -4 -6 -7 -6 -6 -6 -6 -5 -5 -5 -5 -5 -5 -4 -4 -3 -2 -2 -1 0 1 2 2 2 2 2
2 3 4 4 4 4 5 6 6 6 5 5 4 3 2 0 -1 -1 -0 1 1 -0 -2 -4 -6 -6 -6 -6 -6 -6 -6 -5 -5 -5 -5 -5 -5 -4 -4 -3 -2 -1 -1 0 1 1 1 1 1
2 3 4 4 4 4 5 5 5 5 5 4 3 2 1 -0 -1 -1 0 1 1 -0 -1 -3 -5 -6 -6 -6 -6 -6 -6 -6 -6 -6 -6 -6 -5 -5 -4 -4 -3 -2 -2 -1 -1 -0 -0 0 0
1 2 3 3 3 3 4 4 4 4 4 3 3 2 1 -1 -1 -1 0 1 1 -0 -1 -3 -4 -5 -5 -6 -6 -6 -6 -6 -6 -6 -6 -6 -6 -6 -5 -4 -4 -3 -2 -2 -2 -2 -1 -1 -1
1 2 2 2 2 3 3 3 3 4 4 3 3 2 1 -1 -2 -1 0 1 0 -0 -1 -2 -3 -4 -4 -5 -5 -6 -6 -6 -6 -6 -6 -6 -6 -6 -5 -5 -4 -4 -3 -3 -2 -2 -2 -2 -1
2 2 2 2 2 2 2 2 3 3 4 4 3 3 2 0 -1 -1 -0 1 0 -0 -1 -3 -3 -3 -3 -4 -4 -5 -5 -5 -5 -5 -5 -5 -5 -5 -5 -5 -4 -4 -3 -3 -3 -3 -3 -2 -2
3 3 3 2 2 2 2 2 3 3 3 3 3 3 3 2 1 -0 -0 0 0 -0 -1 -2 -3 -3 -3 -3 -3 -4 -4 -4 -4 -4 -4 -4 -3 -3 -3 -3 -3 -3 -3 -3 -3 -3 -3 -2 -2
4 4 4 4 3 2 2 2 3 3 3 3 3 3 3 3 3 2 1 1 0 -0 -1 -1 -2 -2 -2 -2 -2 -3 -3 -2 -2 -2 -2 -2 -1 -1 -1 -2 -2 -2 -2 -2 -2 -2 -2 -2 -1
5 5 6 5 5 4 3 3 3 3 3 3 3 3 3 3 3 3 3 2 1 0 -0 -1 -1 -1 -1 -1 -1 -2 -2 -1 -1 -1 -1 -1 -0 0 0 -0 -0 -1 -1 -1 -1 -1 -1 -1 -1
6 6 6 6 6 5 5 4 4 4 4 4 3 3 3 4 4 4 3 3 3 2 0 -1 -1 -1 -0 0 0 -0 -1 -0 -0 -0 -0 -0 0 1 1 1 0 -0 -1 -1 -2 -2 -1 -1 -0
6 6 6 6 6 6 6 5 5 5 5 4 3 3 4 4 5 5 5 4 4 3 1 -1 -1 -0 1 1 1 1 1 0 0 0 0 0 0 1 1 0 -0 -1 -2 -3 -3 -3 -2 -1 -0
6 5 5 5 6 7 6 6 6 6 6 5 4 3 4 5 5 5 5 5 5 4 2 -1 -2 -2 -0 1 1 2 1 1 1 1 0 -0 -0 -0 -0 -1 -2 -2 -3 -3 -4 -4 -3 -2 -1
5 4 4 5 6 7 7 6 7 8 7 6 5 5 5 5 6 6 6 6 6 5 4 1 -2 -3 -3 -1 -0 1 1 0 1 0 -0 -1 -2 -2 -2 -2 -3 -3 -4 -4 -4 -4 -4 -3 -2
5 4 5 5 7 7 6 7 8 8 8 7 7 6 6 6 6 6 7 7 7 6 5 3 -0 -3 -4 -3 -2 -1 -1 -0 -0 -1 -2 -3 -3 -3 -3 -3 -3 -4 -4 -4 -4 -4 -4 -3 -3
6 6 6 7 7 7 6 6 7 8 8 8 8 7 7 7 7 7 7 7 7 7 6 5 2 -1 -3 -3 -3 -3 -2 -1 -1 -2 -2 -3 -3 -3 -3 -3 -4 -4 -4 -4 -5 -4 -4 -4 -4
7 7 7 7 8 8 7 6 6 7 8 8 8 8 7 7 8 8 8 8 8 7 7 6 5 3 -0 -2 -3 -3 -3 -3 -2 -2 -3 -3 -4 -4 -4 -4 -4 -4 -4 -4 -5 -5 -4 -4 -4
6 7 7 7 7 7 6 5 5 6 7 8 9 9 8 8 8 8 8 8 7 7 7 7 6 5 2 -1 -3 -3 -3 -3 -3 -3 -3 -4 -5 -5 -5 -4 -4 -4 -4 -4 -5 -5 -5 -5 -4
6 7 7 7 6 6 6 5 5 7 7 8 8 9 9 9 9 9 8 8 8 7 7 7 7 6 4 1 -1 -3 -3 -3 -3 -4 -4 -4 -5 -5 -5 -4 -4 -4 -4 -5 -5 -5 -5 -5 -4
6 6 6 7 6 5 4 4 5 7 8 8 9 9 9 9 9 9 8 8 8 8 8 8 7 6 5 3 -0 -2 -3 -3 -3 -3 -4 -4 -4 -4 -4 -5 -5 -5 -5 -5 -5 -6 -5 -5 -4
5 5 5 5 4 3 4 4 5 7 8 9 9 9 9 9 9 9 9 9 9 9 8 8 8 7 6 4 1 -2 -3 -3 -3 -3 -3 -3 -3 -4 -4 -5 -5 -5 -5 -5 -6 -6 -5 -5 -4
5 4 3 2 2 2 4 5 5 7 9 9 8 8 8 8 9 9 10 10 10 9 9 9 8 7 7 5 2 -1 -3 -3 -3 -3 -3 -3 -3 -4 -5 -5 -5 -6 -6 -6 -6 -6 -5 -5 -4
4 4 3 2 1 3 4 5 6 8 8 7 6 6 7 8 9 9 10 10 10 10 10 9 8 7 7 6 4 1 -2 -3 -3 -3 -3 -3 -3 -4 -5 -5 -6 -6 -6 -5 -5 -5 -5 -5 -4
4 4 3 3 2 2 3 4 5 6 6 5 4 3 4 6 7 8 9 10 10 10 10 9 8 7 7 7 5 3 0 -1 -2 -2 -3 -3 -3 -4 -4 -5 -6 -6 -5 -5 -5 -5 -5 -5 -4
4 4 4 3 2 2 2 3 3 3 3 2 1 2 2 3 4 6 8 9 9 9 9 8 7 7 6 6 5 4 1 -0 -1 -1 -2 -3 -3 -3 -4 -5 -6 -6 -5 -5 -5 -5 -5 -4 -4
4 4 4 3 3 2 1 2 2 2 1 1 1 1 1 2 2 3 5 6 7 8 8 7 6 5 5 5 5 4 2 1 0 -1 -2 -3 -3 -3 -4 -5 -5 -5 -5 -4 -4 -4 -4 -4 -4
4 4 4 4 3 3 2 1 2 2 1 1 1 1 1 1 1 2 3 4 6 6 7 6 5 4 3 4 4 3 2 1 0 -0 -2 -3 -3 -3 -4 -4 -5 -5 -5 -4 -4 -4 -4 -3 -3